When you browse on this site, cookies collect data to enhance your experience and personalize the content and advertising you see.
Visit our Privacy Policy to learn more. By continuing to use the site, you agree to this use of cookies and data.
  • In Germany
  • List of Countries
  • For 7 days
  • Water Temperature
  • Satellite Maps
  • Weather Map
  • Weather Widgets
  • user-avatar
    Login

    Hourly Weather Banbridge

    Today, 13 December, Thursday

    Time Temperature Precipitation Wind Pressure Humidity
    00:00 +4°C° 0 mm 11 mps 749 mmHg 84%
    01:00 +3°C° 0.3 mm 11 mps 749 mmHg 84%
    02:00 +3°C° 0.3 mm 11 mps 748 mmHg 84%
    03:00 +3°C° 0.3 mm 11 mps 748 mmHg 84%
    04:00 +3°C° 0.3 mm 11 mps 748 mmHg 83%
    05:00 +3°C° 0.3 mm 11 mps 749 mmHg 83%
    06:00 +2°C° 0.3 mm 11 mps 749 mmHg 83%
    07:00 +2°C° 0.3 mm 11 mps 749 mmHg 82%
    08:00 +2°C° 0.3 mm 10 mps 749 mmHg 82%
    09:00 +2°C° 0.3 mm 10 mps 749 mmHg 82%
    10:00 +2°C° 0.1 mm 10 mps 750 mmHg 81%
    11:00 +2°C° 0.1 mm 10 mps 750 mmHg 80%
    12:00 +3°C° 0.1 mm 10 mps 751 mmHg 80%
    13:00 +3°C° 0.1 mm 9 mps 751 mmHg 80%
    14:00 +2°C° 0.1 mm 9 mps 751 mmHg 81%
    15:00 +2°C° 0.1 mm 9 mps 752 mmHg 81%
    16:00 +2°C° 0.1 mm 8 mps 752 mmHg 82%
    17:00 +2°C° 0.1 mm 8 mps 753 mmHg 82%
    18:00 +2°C° 0.1 mm 8 mps 754 mmHg 83%
    19:00 +2°C° 0.1 mm 8 mps 754 mmHg 83%
    20:00 +2°C° 0.1 mm 8 mps 754 mmHg 82%
    21:00 +3°C° 0.1 mm 7 mps 755 mmHg 82%
    22:00 +3°C° 0 mm 7 mps 755 mmHg 82%
    23:00 +3°C° 0 mm 7 mps 755 mmHg 82%

    Tomorrow, 14 December, Friday

    Time Temperature Precipitation Wind Pressure Humidity
    00:00 +3°C° 0 mm 7 mps 756 mmHg 81%
    01:00 +3°C° 0 mm 7 mps 756 mmHg 82%
    02:00 +3°C° 0 mm 7 mps 756 mmHg 82%
    03:00 +3°C° 0 mm 7 mps 755 mmHg 82%
    04:00 +3°C° 0 mm 7 mps 755 mmHg 83%
    05:00 +3°C° 0 mm 7 mps 755 mmHg 84%
    06:00 +3°C° 0 mm 7 mps 755 mmHg 84%
    07:00 +3°C° 0 mm 7 mps 755 mmHg 84%
    08:00 +2°C° 0 mm 8 mps 755 mmHg 84%
    09:00 +2°C° 0 mm 8 mps 755 mmHg 84%
    10:00 +2°C° 0 mm 8 mps 755 mmHg 83%
    11:00 +3°C° 0 mm 9 mps 755 mmHg 83%
    12:00 +3°C° 0 mm 9 mps 755 mmHg 82%
    13:00 +3°C° 0.1 mm 9 mps 755 mmHg 83%
    14:00 +3°C° 0.1 mm 9 mps 754 mmHg 84%
    15:00 +3°C° 0.1 mm 9 mps 754 mmHg 84%
    16:00 +3°C° 0.2 mm 10 mps 753 mmHg 85%
    17:00 +3°C° 0.2 mm 10 mps 753 mmHg 86%
    18:00 +3°C° 0.2 mm 10 mps 753 mmHg 86%
    19:00 +3°C° 0.5 mm 10 mps 752 mmHg 87%
    20:00 +3°C° 0.5 mm 10 mps 752 mmHg 87%
    21:00 +3°C° 0.5 mm 11 mps 751 mmHg 88%
    22:00 +3°C° 0.8 mm 11 mps 750 mmHg 88%
    23:00 +3°C° 0.8 mm 11 mps 750 mmHg 88%

    Day after tomorrow, 15 December, Saturday

    Time Temperature Precipitation Wind Pressure Humidity
    00:00 +4°C° 0.8 mm 11 mps 749 mmHg 88%
    01:00 +4°C° 1 mm 11 mps 748 mmHg 88%
    02:00 +4°C° 1 mm 11 mps 747 mmHg 88%
    03:00 +4°C° 1 mm 12 mps 746 mmHg 89%
    04:00 +4°C° 1.3 mm 12 mps 745 mmHg 89%
    05:00 +4°C° 1.3 mm 12 mps 744 mmHg 88%
    06:00 +4°C° 1.3 mm 12 mps 743 mmHg 88%
    07:00 +4°C° 0.4 mm 12 mps 742 mmHg 89%
    08:00 +5°C° 0.4 mm 12 mps 742 mmHg 89%
    09:00 +5°C° 0.4 mm 12 mps 741 mmHg 90%
    10:00 +5°C° 0.9 mm 12 mps 740 mmHg 90%
    11:00 +7°C° 0.9 mm 12 mps 739 mmHg 91%
    12:00 +7°C° 0.9 mm 12 mps 738 mmHg 91%
    13:00 +7°C° 1.4 mm 12 mps 737 mmHg 91%
    14:00 +7°C° 1.4 mm 12 mps 735 mmHg 91%
    15:00 +7°C° 1.4 mm 12 mps 733 mmHg 91%
    16:00 +7°C° 3.5 mm 12 mps 732 mmHg 92%
    17:00 +7°C° 3.5 mm 12 mps 730 mmHg 93%
    18:00 +8°C° 3.5 mm 11 mps 728 mmHg 93%
    19:00 +7°C° 2.3 mm 11 mps 728 mmHg 91%
    20:00 +6°C° 2.3 mm 11 mps 728 mmHg 88%
    21:00 +4°C° 2.3 mm 11 mps 728 mmHg 86%
    22:00 +4°C° 1.3 mm 11 mps 730 mmHg 83%
    23:00 +3°C° 1.3 mm 12 mps 731 mmHg 81%

    16 December, Sunday

    Time Temperature Precipitation Wind Pressure Humidity
    00:00 +2°C° 1.3 mm 12 mps 733 mmHg 78%
    01:00 +2°C° 0.2 mm 11 mps 734 mmHg 79%
    02:00 +2°C° 0.2 mm 10 mps 736 mmHg 80%
    03:00 +2°C° 0.2 mm 9 mps 737 mmHg 80%
    04:00 +2°C° 0 mm 8 mps 738 mmHg 82%
    05:00 +1°C° 0 mm 8 mps 739 mmHg 83%
    06:00 +1°C° 0 mm 8 mps 740 mmHg 84%
    07:00 +2°C° 0 mm 7 mps 740 mmHg 86%
    08:00 +2°C° 0 mm 7 mps 741 mmHg 87%
    09:00 +1°C° 0 mm 6 mps 741 mmHg 88%
    10:00 +2°C° 0 mm 6 mps 742 mmHg 87%
    11:00 +3°C° 0 mm 6 mps 742 mmHg 85%
    12:00 +3°C° 0 mm 6 mps 742 mmHg 83%
    13:00 +3°C° 0 mm 6 mps 743 mmHg 83%
    14:00 +3°C° 0 mm 5 mps 743 mmHg 84%
    15:00 +3°C° 0 mm 5 mps 743 mmHg 85%
    16:00 +3°C° 0 mm 5 mps 744 mmHg 86%
    17:00 +2°C° 0 mm 5 mps 744 mmHg 87%
    18:00 +2°C° 0 mm 5 mps 744 mmHg 89%
    19:00 +2°C° 0 mm 5 mps 745 mmHg 89%
    20:00 +1°C° 0 mm 5 mps 745 mmHg 90%
    21:00 +1°C° 0 mm 5 mps 746 mmHg 90%
    22:00 +1°C° 0 mm 4 mps 746 mmHg 91%
    23:00 +1°C° 0 mm 4 mps 747 mmHg 92%

    17 December, Monday

    Time Temperature Precipitation Wind Pressure Humidity
    00:00 +1°C° 0 mm 4 mps 747 mmHg 93%
    01:00 +1°C° 0 mm 4 mps 747 mmHg 93%
    02:00 0°C° 0 mm 4 mps 747 mmHg 94%
    03:00 0°C° 0 mm 4 mps 748 mmHg 94%
    04:00 +1°C° 0 mm 3 mps 748 mmHg 94%
    05:00 +1°C° 0 mm 3 mps 748 mmHg 94%
    06:00 +1°C° 0 mm 3 mps 748 mmHg 94%
    07:00 +1°C° 0 mm 3 mps 749 mmHg 94%
    08:00 +1°C° 0 mm 3 mps 749 mmHg 94%
    09:00 +1°C° 0 mm 3 mps 749 mmHg 93%
    10:00 +1°C° 0 mm 4 mps 749 mmHg 89%
    11:00 +2°C° 0 mm 5 mps 749 mmHg 86%
    12:00 +3°C° 0 mm 6 mps 749 mmHg 82%
    13:00 +4°C° 0 mm 6 mps 749 mmHg 82%
    14:00 +4°C° 0 mm 7 mps 748 mmHg 82%
    15:00 +5°C° 0 mm 8 mps 747 mmHg 82%
    16:00 +5°C° 0 mm 9 mps 747 mmHg 82%
    17:00 +6°C° 0 mm 9 mps 746 mmHg 83%
    18:00 +6°C° 0 mm 10 mps 746 mmHg 84%
    19:00 +7°C° 0.1 mm 11 mps 745 mmHg 84%
    20:00 +7°C° 0.1 mm 11 mps 745 mmHg 84%
    21:00 +8°C° 0.1 mm 11 mps 744 mmHg 84%
    22:00 +8°C° 0.1 mm 12 mps 743 mmHg 84%
    23:00 +8°C° 0.1 mm 12 mps 742 mmHg 84%

    18 December, Tuesday

    Time Temperature Precipitation Wind Pressure Humidity
    00:00 +8°C° 0.1 mm 13 mps 741 mmHg 84%
    01:00 +8°C° 0.6 mm 13 mps 740 mmHg 84%
    02:00 +9°C° 0.6 mm 13 mps 739 mmHg 84%
    03:00 +9°C° 0.6 mm 14 mps 738 mmHg 85%
    04:00 +8°C° 1.6 mm 12 mps 738 mmHg 86%
    05:00 +8°C° 1.6 mm 11 mps 738 mmHg 87%
    06:00 +7°C° 1.6 mm 10 mps 737 mmHg 89%
    07:00 +7°C° 0.4 mm 9 mps 738 mmHg 89%
    08:00 +7°C° 0.4 mm 8 mps 738 mmHg 89%
    09:00 +6°C° 0.4 mm 7 mps 738 mmHg 89%
    10:00 +7°C° 0.2 mm 6 mps 738 mmHg 89%
    11:00 +7°C° 0.2 mm 5 mps 739 mmHg 89%
    12:00 +7°C° 0.2 mm 5 mps 739 mmHg 89%
    13:00 +7°C° 0 mm 4 mps 739 mmHg 89%
    14:00 +7°C° 0 mm 4 mps 739 mmHg 89%
    15:00 +7°C° 0 mm 4 mps 739 mmHg 89%
    16:00 +7°C° 0 mm 3 mps 739 mmHg 90%
    17:00 +5°C° 0 mm 3 mps 739 mmHg 91%
    18:00 +6°C° 0 mm 2 mps 739 mmHg 92%
    19:00 +5°C° 0 mm 2 mps 739 mmHg 92%
    20:00 +5°C° 0 mm 2 mps 739 mmHg 93%
    21:00 +5°C° 0 mm 2 mps 740 mmHg 93%
    22:00 +5°C° 0 mm 2 mps 739 mmHg 93%
    23:00 +5°C° 0 mm 2 mps 739 mmHg 93%
    Show more